Time,TemperatureF,DewpointF,PressureIn,WindDirection,WindDirectionDegrees,WindSpeedMPH,WindSpeedGustMPH,Humidity,HourlyPrecipIn,Conditions,Clouds,dailyrainin,SoftwareType,DateUTC
2013-06-26 00:01:00,79.0,70.0,30.03,North,0,0.0,0.0,74,0.00,CLR,FEW,0.00,WeatherDisplay:10.37,2013-06-26 04:01:00,
2013-06-26 00:03:00,79.0,70.0,30.03,North,0,0.0,0.0,74,0.00,CLR,FEW,0.00,WeatherDisplay:10.37,2013-06-26 04:03:00,
2013-06-26 00:06:00,79.0,70.0,30.03,North,0,0.0,0.0,74,0.00,CLR,FEW,0.00,WeatherDisplay:10.37,2013-06-26 04:06:00,
2013-06-26 00:07:00,79.0,70.4,30.03,North,0,0.0,0.0,75,0.00,CLR,FEW,0.00,WeatherDisplay:10.37,2013-06-26 04:07:00,
2013-06-26 00:12:00,79.0,70.4,30.03,North,0,0.0,0.0,75,0.00,CLR,FEW,0.00,WeatherDisplay:10.37,2013-06-26 04:12:00,
2013-06-26 00:17:00,79.0,70.4,30.03,North,0,0.0,0.0,75,0.00,CLR,FEW,0.00,WeatherDisplay:10.37,2013-06-26 04:17:00,
2013-06-26 00:22:00,79.2,70.5,30.03,North,0,0.0,0.0,75,0.00,CLR,FEW,0.00,WeatherDisplay:10.37,2013-06-26 04:22:00,
2013-06-26 00:27:00,79.2,70.2,30.03,North,0,0.0,0.0,74,0.00,CLR,FEW,0.00,WeatherDisplay:10.37,2013-06-26 04:27:00,
2013-06-26 00:32:00,79.2,68.9,30.03,North,0,0.0,0.0,71,0.00,CLR,FEW,0.00,WeatherDisplay:10.37,2013-06-26 04:32:00,
2013-06-26 00:37:00,79.2,68.5,30.03,North,0,0.0,0.0,70,0.00,CLR,FEW,0.00,WeatherDisplay:10.37,2013-06-26 04:37:00,
2013-06-26 00:42:00,79.2,68.1,30.03,North,0,0.0,0.0,69,0.00,CLR,FEW,0.00,WeatherDisplay:10.37,2013-06-26 04:42:00,
2013-06-26 00:47:00,79.3,68.3,30.03,North,0,0.0,0.0,69,0.00,CLR,FEW,0.00,WeatherDisplay:10.37,2013-06-26 04:47:00,
2013-06-26 00:52:00,79.3,68.3,30.03,North,0,0.0,0.0,69,0.00,CLR,FEW,0.00,WeatherDisplay:10.37,2013-06-26 04:52:00,
2013-06-26 00:57:00,79.3,67.9,30.03,North,0,0.0,0.0,68,0.00,CLR,FEW,0.00,WeatherDisplay:10.37,2013-06-26 04:57:00,
2013-06-26 01:02:00,79.2,67.3,30.03,North,0,0.0,0.0,67,0.00,CLR,FEW,0.00,WeatherDisplay:10.37,2013-06-26 05:02:00,
2013-06-26 01:07:00,79.2,67.3,30.03,North,0,0.0,0.0,67,0.00,CLR,FEW,0.00,WeatherDisplay:10.37,2013-06-26 05:07:00,
2013-06-26 01:12:00,79.2,66.8,30.03,North,0,0.0,0.0,66,0.00,CLR,FEW,0.00,WeatherDisplay:10.37,2013-06-26 05:12:00,
2013-06-26 01:17:00,79.2,66.8,30.03,North,0,0.0,0.0,66,0.00,CLR,FEW,0.00,WeatherDisplay:10.37,2013-06-26 05:17:00,
2013-06-26 01:22:00,79.2,66.8,30.03,North,0,0.0,0.0,66,0.00,CLR,FEW,0.00,WeatherDisplay:10.37,2013-06-26 05:22:00,
2013-06-26 01:27:00,79.2,67.3,30.03,North,0,0.0,0.0,67,0.00,CLR,FEW,0.00,WeatherDisplay:10.37,2013-06-26 05:27:00,
2013-06-26 01:32:00,79.2,67.3,30.03,North,0,0.0,0.0,67,0.00,CLR,FEW,0.00,WeatherDisplay:10.37,2013-06-26 05:32:00,
2013-06-26 01:37:00,79.0,66.6,30.03,North,0,0.0,0.0,66,0.00,CLR,FEW,0.00,WeatherDisplay:10.37,2013-06-26 05:37:00,
2013-06-26 01:42:00,78.8,66.0,30.03,North,0,0.0,0.0,65,0.00,CLR,FEW,0.00,WeatherDisplay:10.37,2013-06-26 05:42:00,
2013-06-26 01:47:00,78.6,65.4,30.03,North,0,0.0,0.0,64,0.00,CLR,FEW,0.00,WeatherDisplay:10.37,2013-06-26 05:47:00,
2013-06-26 01:52:00,78.6,65.0,30.03,North,0,0.0,0.0,63,0.00,CLR,FEW,0.00,WeatherDisplay:10.37,2013-06-26 05:52:00,
2013-06-26 01:57:00,78.6,64.5,30.03,North,0,0.0,0.0,62,0.00,CLR,FEW,0.00,WeatherDisplay:10.37,2013-06-26 05:57:00,
2013-06-26 02:02:00,78.4,63.9,30.03,North,0,0.0,0.0,61,0.00,CLR,FEW,0.00,WeatherDisplay:10.37,2013-06-26 06:02:00,
2013-06-26 02:07:00,78.3,64.6,30.03,North,0,0.0,0.0,63,0.00,CLR,FEW,0.00,WeatherDisplay:10.37,2013-06-26 06:07:00,
2013-06-26 02:12:00,78.1,64.5,30.03,North,0,0.0,0.0,63,0.00,CLR,FEW,0.00,WeatherDisplay:10.37,2013-06-26 06:12:00,
2013-06-26 02:17:00,77.9,64.7,30.03,North,0,0.0,0.0,64,0.00,CLR,FEW,0.00,WeatherDisplay:10.37,2013-06-26 06:17:00,
2013-06-26 02:22:00,77.9,65.2,30.03,North,0,0.0,0.0,65,0.00,CLR,FEW,0.00,WeatherDisplay:10.37,2013-06-26 06:22:00,
2013-06-26 02:27:00,77.7,65.5,30.03,North,0,0.0,0.0,66,0.00,CLR,FEW,0.00,WeatherDisplay:10.37,2013-06-26 06:27:00,
2013-06-26 02:32:00,77.5,65.7,30.03,North,0,0.0,0.0,67,0.00,CLR,FEW,0.00,WeatherDisplay:10.37,2013-06-26 06:32:00,
2013-06-26 02:37:00,77.4,65.5,30.03,North,0,0.0,0.0,67,0.00,CLR,FEW,0.00,WeatherDisplay:10.37,2013-06-26 06:37:00,
2013-06-26 02:42:00,77.2,65.8,30.03,North,0,0.0,0.0,68,0.00,CLR,FEW,0.00,WeatherDisplay:10.37,2013-06-26 06:42:00,
2013-06-26 02:47:00,77.2,66.2,30.03,North,0,0.0,0.0,69,0.00,CLR,FEW,0.00,WeatherDisplay:10.37,2013-06-26 06:47:00,
2013-06-26 02:52:00,77.0,66.9,30.03,North,0,0.0,0.0,71,0.00,CLR,FEW,0.00,WeatherDisplay:10.37,2013-06-26 06:52:00,
2013-06-26 02:57:00,77.0,67.3,30.03,North,0,0.0,0.0,72,0.00,CLR,FEW,0.00,WeatherDisplay:10.37,2013-06-26 06:57:00,
2013-06-26 03:02:00,76.8,67.9,30.03,North,0,0.0,0.0,74,0.00,CLR,FEW,0.00,WeatherDisplay:10.37,2013-06-26 07:02:00,
2013-06-26 03:07:00,76.8,68.3,30.03,North,0,0.0,0.0,75,0.00,CLR,FEW,0.00,WeatherDisplay:10.37,2013-06-26 07:07:00,
2013-06-26 03:12:00,76.8,68.3,30.03,North,0,0.0,0.0,75,0.00,CLR,FEW,0.00,WeatherDisplay:10.37,2013-06-26 07:12:00,
2013-06-26 03:17:00,76.6,68.1,30.03,North,0,0.0,0.0,75,0.00,CLR,FEW,0.00,WeatherDisplay:10.37,2013-06-26 07:17:00,
2013-06-26 03:22:00,76.6,68.1,30.03,North,0,0.0,0.0,75,0.00,CLR,FEW,0.00,WeatherDisplay:10.37,2013-06-26 07:22:00,
2013-06-26 03:27:00,76.6,68.5,30.03,North,0,0.0,0.0,76,0.00,CLR,FEW,0.00,WeatherDisplay:10.37,2013-06-26 07:27:00,
2013-06-26 03:32:00,76.6,68.5,30.03,North,0,0.0,0.0,76,0.00,CLR,FEW,0.00,WeatherDisplay:10.37,2013-06-26 07:32:00,
2013-06-26 03:37:00,76.6,68.5,30.03,North,0,0.0,0.0,76,0.00,CLR,FEW,0.00,WeatherDisplay:10.37,2013-06-26 07:37:00,
2013-06-26 03:42:00,76.5,67.9,30.03,North,0,0.0,0.0,75,0.00,CLR,FEW,0.00,WeatherDisplay:10.37,2013-06-26 07:42:00,
2013-06-26 03:47:00,76.5,67.9,30.03,North,0,0.0,0.0,75,0.00,CLR,FEW,0.00,WeatherDisplay:10.37,2013-06-26 07:47:00,
2013-06-26 03:52:00,76.3,67.8,30.03,North,0,0.0,0.0,75,0.00,CLR,FEW,0.00,WeatherDisplay:10.37,2013-06-26 07:52:00,
2013-06-26 03:57:00,76.3,67.8,30.03,North,0,0.0,0.0,75,0.00,CLR,FEW,0.00,WeatherDisplay:10.37,2013-06-26 07:57:00,
2013-06-26 04:02:00,76.1,67.6,30.03,North,0,0.0,0.0,75,0.00,CLR,FEW,0.00,WeatherDisplay:10.37,2013-06-26 08:02:00,
2013-06-26 04:07:00,76.1,67.6,30.03,North,0,0.0,0.0,75,0.00,CLR,FEW,0.00,WeatherDisplay:10.37,2013-06-26 08:07:00,
2013-06-26 04:12:00,75.9,67.4,30.03,North,0,0.0,0.0,75,0.00,CLR,FEW,0.00,WeatherDisplay:10.37,2013-06-26 08:12:00,
2013-06-26 04:17:00,75.9,67.8,30.03,North,0,0.0,0.0,76,0.00,CLR,FEW,0.00,WeatherDisplay:10.37,2013-06-26 08:17:00,
2013-06-26 04:22:00,75.7,67.6,30.03,North,0,0.0,0.0,76,0.00,CLR,FEW,0.00,WeatherDisplay:10.37,2013-06-26 08:22:00,
2013-06-26 04:27:00,75.7,67.6,30.03,North,0,0.0,0.0,76,0.00,CLR,FEW,0.00,WeatherDisplay:10.37,2013-06-26 08:27:00,
2013-06-26 04:32:00,75.6,67.5,30.03,North,0,0.0,0.0,76,0.00,CLR,FEW,0.00,WeatherDisplay:10.37,2013-06-26 08:32:00,
2013-06-26 04:37:00,75.6,67.8,30.03,North,0,0.0,0.0,77,0.00,CLR,FEW,0.00,WeatherDisplay:10.37,2013-06-26 08:37:00,
2013-06-26 04:42:00,75.6,67.8,30.03,North,0,0.0,0.0,77,0.00,CLR,FEW,0.00,WeatherDisplay:10.37,2013-06-26 08:42:00,
2013-06-26 04:47:00,75.4,68.0,30.03,North,0,0.0,0.0,78,0.00,CLR,FEW,0.00,WeatherDisplay:10.37,2013-06-26 08:47:00,
2013-06-26 04:52:00,75.4,68.0,30.03,North,0,0.0,0.0,78,0.00,CLR,FEW,0.00,WeatherDisplay:10.37,2013-06-26 08:52:00,
2013-06-26 04:57:00,75.6,68.6,30.03,North,0,0.0,0.0,79,0.00,CLR,FEW,0.00,WeatherDisplay:10.37,2013-06-26 08:57:00,
2013-06-26 05:02:00,75.6,69.0,30.03,North,0,0.0,0.0,80,0.00,CLR,FEW,0.00,WeatherDisplay:10.37,2013-06-26 09:02:00,
2013-06-26 05:07:00,75.6,69.0,30.03,North,0,0.0,0.0,80,0.00,CLR,FEW,0.00,WeatherDisplay:10.37,2013-06-26 09:07:00,
2013-06-26 05:12:00,75.4,68.8,30.03,North,0,0.0,0.0,80,0.00,CLR,FEW,0.00,WeatherDisplay:10.37,2013-06-26 09:12:00,
2013-06-26 05:17:00,75.2,68.6,30.03,North,0,0.0,0.0,80,0.00,CLR,FEW,0.00,WeatherDisplay:10.37,2013-06-26 09:17:00,
2013-06-26 05:22:00,75.2,68.6,30.03,North,0,0.0,0.0,80,0.00,CLR,FEW,0.00,WeatherDisplay:10.37,2013-06-26 09:22:00,
2013-06-26 05:27:00,75.2,69.0,30.03,North,0,0.0,0.0,81,0.00,CLR,FEW,0.00,WeatherDisplay:10.37,2013-06-26 09:27:00,
2013-06-26 05:32:00,75.2,69.3,30.03,North,0,0.0,0.0,82,0.00,CLR,FEW,0.00,WeatherDisplay:10.37,2013-06-26 09:32:00,
2013-06-26 05:37:00,75.2,69.7,30.03,North,0,0.0,0.0,83,0.00,CLR,FEW,0.00,WeatherDisplay:10.37,2013-06-26 09:37:00,
2013-06-26 05:42:00,75.0,69.5,30.03,North,0,0.0,0.0,83,0.00,CLR,FEW,0.00,WeatherDisplay:10.37,2013-06-26 09:42:00,
2013-06-26 05:47:00,75.0,69.9,30.03,North,0,0.0,0.0,84,0.00,CLR,FEW,0.00,WeatherDisplay:10.37,2013-06-26 09:47:00,
2013-06-26 05:52:00,75.0,69.9,30.03,North,0,0.0,0.0,84,0.00,CLR,FEW,0.00,WeatherDisplay:10.37,2013-06-26 09:52:00,
2013-06-26 05:57:00,75.0,69.9,30.03,North,0,0.0,0.0,84,0.00,CLR,FEW,0.00,WeatherDisplay:10.37,2013-06-26 09:57:00,
2013-06-26 06:02:00,75.0,70.2,30.06,North,0,0.0,0.0,85,0.00,CLR,FEW,0.00,WeatherDisplay:10.37,2013-06-26 10:02:00,
2013-06-26 06:07:00,75.0,70.2,30.06,North,0,0.0,0.0,85,0.00,CLR,FEW,0.00,WeatherDisplay:10.37,2013-06-26 10:07:00,
2013-06-26 06:12:00,75.0,69.9,30.06,North,0,0.0,0.0,84,0.00,CLR,FEW,0.00,WeatherDisplay:10.37,2013-06-26 10:12:00,
2013-06-26 06:17:00,75.0,69.9,30.06,North,0,0.0,0.0,84,0.00,CLR,FEW,0.00,WeatherDisplay:10.37,2013-06-26 10:17:00,
2013-06-26 06:22:00,75.2,70.0,30.06,North,0,0.0,0.0,84,0.00,CLR,FEW,0.00,WeatherDisplay:10.37,2013-06-26 10:22:00,
2013-06-26 06:23:00,75.2,70.0,30.06,North,0,0.0,0.0,84,0.00,CLR,FEW,0.00,WeatherDisplay:10.37,2013-06-26 10:23:00,
2013-06-26 06:28:00,75.2,70.0,30.06,North,0,0.0,0.0,84,0.00,CLR,FEW,0.00,WeatherDisplay:10.37,2013-06-26 10:28:00,
2013-06-26 06:33:00,75.2,69.7,30.06,North,0,0.0,0.0,83,0.00,CLR,FEW,0.00,WeatherDisplay:10.37,2013-06-26 10:33:00,
2013-06-26 06:38:00,75.4,69.9,30.06,North,0,0.0,0.0,83,0.00,CLR,FEW,0.00,WeatherDisplay:10.37,2013-06-26 10:38:00,
2013-06-26 06:43:00,75.4,69.5,30.06,North,0,0.0,0.0,82,0.00,CLR,FEW,0.00,WeatherDisplay:10.37,2013-06-26 10:43:00,
2013-06-26 06:48:00,75.6,69.7,30.06,North,0,0.0,0.0,82,0.00,CLR,FEW,0.00,WeatherDisplay:10.37,2013-06-26 10:48:00,
2013-06-26 06:53:00,75.6,69.7,30.06,North,0,0.0,0.0,82,0.00,CLR,FEW,0.00,WeatherDisplay:10.37,2013-06-26 10:53:00,
2013-06-26 06:58:00,75.7,69.5,30.06,North,0,0.0,0.0,81,0.00,CLR,FEW,0.00,WeatherDisplay:10.37,2013-06-26 10:58:00,
2013-06-26 07:03:00,75.7,69.5,30.06,North,0,0.0,0.0,81,0.00,CLR,FEW,0.00,WeatherDisplay:10.37,2013-06-26 11:03:00,
2013-06-26 07:08:00,75.7,69.1,30.06,North,0,0.0,0.0,80,0.00,CLR,FEW,0.00,WeatherDisplay:10.37,2013-06-26 11:08:00,
2013-06-26 07:13:00,75.9,69.3,30.06,North,0,0.0,0.0,80,0.00,CLR,FEW,0.00,WeatherDisplay:10.37,2013-06-26 11:13:00,
2013-06-26 07:18:00,76.1,69.5,30.06,North,0,0.0,0.0,80,0.00,CLR,FEW,0.00,WeatherDisplay:10.37,2013-06-26 11:18:00,
2013-06-26 07:23:00,76.1,69.1,30.06,North,0,0.0,0.0,79,0.00,CLR,FEW,0.00,WeatherDisplay:10.37,2013-06-26 11:23:00,
2013-06-26 07:28:00,76.3,68.9,30.06,North,0,0.0,0.0,78,0.00,CLR,FEW,0.00,WeatherDisplay:10.37,2013-06-26 11:28:00,
2013-06-26 07:33:00,76.3,68.9,30.06,North,0,0.0,0.0,78,0.00,CLR,FEW,0.00,WeatherDisplay:10.37,2013-06-26 11:33:00,
2013-06-26 07:38:00,76.5,69.1,30.06,North,0,0.0,0.0,78,0.00,CLR,FEW,0.00,WeatherDisplay:10.37,2013-06-26 11:38:00,
2013-06-26 07:43:00,76.6,69.3,30.06,North,0,0.0,0.0,78,0.00,CLR,FEW,0.00,WeatherDisplay:10.37,2013-06-26 11:43:00,
2013-06-26 07:48:00,76.8,69.1,30.06,North,0,0.0,0.0,77,0.00,CLR,FEW,0.00,WeatherDisplay:10.37,2013-06-26 11:48:00,
2013-06-26 07:53:00,76.8,68.7,30.06,North,0,0.0,0.0,76,0.00,CLR,FEW,0.00,WeatherDisplay:10.37,2013-06-26 11:53:00,
2013-06-26 07:58:00,77.0,68.5,30.06,North,0,0.0,0.0,75,0.00,CLR,FEW,0.00,WeatherDisplay:10.37,2013-06-26 11:58:00,
2013-06-26 08:03:00,77.0,67.7,30.06,North,0,0.0,0.0,73,0.00,CLR,FEW,0.00,WeatherDisplay:10.37,2013-06-26 12:03:00,
2013-06-26 08:08:00,77.4,67.2,30.06,North,0,0.0,0.0,71,0.00,CLR,FEW,0.00,WeatherDisplay:10.37,2013-06-26 12:08:00,
2013-06-26 08:13:00,77.5,65.3,30.06,North,0,0.0,0.0,66,0.00,CLR,FEW,0.00,WeatherDisplay:10.37,2013-06-26 12:13:00,
2013-06-26 08:18:00,77.5,65.3,30.06,North,0,0.0,0.0,66,0.00,CLR,FEW,0.00,WeatherDisplay:10.37,2013-06-26 12:18:00,
2013-06-26 08:23:00,78.1,66.2,30.06,North,0,0.0,0.0,67,0.00,CLR,FEW,0.00,WeatherDisplay:10.37,2013-06-26 12:23:00,
2013-06-26 08:28:00,78.3,64.6,30.06,North,0,0.0,0.0,63,0.00,CLR,FEW,0.00,WeatherDisplay:10.37,2013-06-26 12:28:00,
2013-06-26 08:33:00,78.3,63.7,30.06,North,0,0.0,0.0,61,0.00,CLR,FEW,0.00,WeatherDisplay:10.37,2013-06-26 12:33:00,
2013-06-26 08:38:00,78.3,63.2,30.06,North,0,0.0,0.0,60,0.00,CLR,FEW,0.00,WeatherDisplay:10.37,2013-06-26 12:38:00,
2013-06-26 08:43:00,78.4,62.9,30.06,North,0,0.0,0.0,59,0.00,CLR,FEW,0.00,WeatherDisplay:10.37,2013-06-26 12:43:00,
2013-06-26 08:48:00,78.4,61.9,30.06,North,0,0.0,0.0,57,0.00,CLR,FEW,0.00,WeatherDisplay:10.37,2013-06-26 12:48:00,
2013-06-26 08:53:00,78.3,61.8,30.06,North,0,0.0,0.0,57,0.00,CLR,FEW,0.00,WeatherDisplay:10.37,2013-06-26 12:53:00,
2013-06-26 08:58:00,78.6,62.1,30.06,North,0,0.0,0.0,57,0.00,CLR,FEW,0.00,WeatherDisplay:10.37,2013-06-26 12:58:00,
2013-06-26 09:03:00,79.7,62.6,30.06,North,0,0.0,0.0,56,0.00,CLR,FEW,0.00,WeatherDisplay:10.37,2013-06-26 13:03:00,
2013-06-26 09:08:00,81.0,60.6,30.06,North,0,0.0,0.0,50,0.00,CLR,FEW,0.00,WeatherDisplay:10.37,2013-06-26 13:08:00,
2013-06-26 09:13:00,82.0,59.2,30.06,North,0,0.0,0.0,46,0.00,CLR,FEW,0.00,WeatherDisplay:10.37,2013-06-26 13:13:00,
2013-06-26 09:18:00,82.0,58.6,30.06,North,0,0.0,0.0,45,0.00,CLR,FEW,0.00,WeatherDisplay:10.37,2013-06-26 13:18:00,
2013-06-26 09:23:00,82.0,58.6,30.06,North,0,0.0,0.0,45,0.00,CLR,FEW,0.00,WeatherDisplay:10.37,2013-06-26 13:23:00,
2013-06-26 09:28:00,82.0,57.3,30.06,North,0,0.0,0.0,43,0.00,CLR,FEW,0.00,WeatherDisplay:10.37,2013-06-26 13:28:00,
2013-06-26 09:33:00,81.9,55.9,30.06,North,0,0.0,0.0,41,0.00,CLR,FEW,0.00,WeatherDisplay:10.37,2013-06-26 13:33:00,
2013-06-26 09:38:00,81.9,55.2,30.06,North,0,0.0,0.0,40,0.00,CLR,FEW,0.00,WeatherDisplay:10.37,2013-06-26 13:38:00,
2013-06-26 09:43:00,82.6,55.8,30.06,North,0,0.0,0.0,40,0.00,CLR,FEW,0.00,WeatherDisplay:10.37,2013-06-26 13:43:00,
2013-06-26 09:48:00,82.4,55.0,30.06,North,0,0.0,0.0,39,0.00,CLR,FEW,0.00,WeatherDisplay:10.37,2013-06-26 13:48:00,
2013-06-26 09:53:00,82.6,55.1,30.06,North,0,0.0,0.0,39,0.00,CLR,FEW,0.00,WeatherDisplay:10.37,2013-06-26 13:53:00,
2013-06-26 09:58:00,82.8,55.3,30.06,North,0,0.0,0.0,39,0.00,CLR,FEW,0.00,WeatherDisplay:10.37,2013-06-26 13:58:00,
2013-06-26 10:03:00,82.9,54.7,30.06,North,0,0.0,0.0,38,0.00,CLR,FEW,0.00,WeatherDisplay:10.37,2013-06-26 14:03:00,
2013-06-26 10:08:00,83.5,53.7,30.06,North,0,0.0,0.0,36,0.00,CLR,FEW,0.00,WeatherDisplay:10.37,2013-06-26 14:08:00,
2013-06-26 10:13:00,84.0,52.6,30.06,North,0,0.0,0.0,34,0.00,CLR,FEW,0.00,WeatherDisplay:10.37,2013-06-26 14:13:00,
2013-06-26 10:18:00,84.6,50.6,30.03,North,0,0.0,0.0,31,0.00,CLR,FEW,0.00,WeatherDisplay:10.37,2013-06-26 14:18:00,
2013-06-26 10:23:00,84.9,51.8,30.03,North,0,0.0,0.0,32,0.00,CLR,FEW,0.00,WeatherDisplay:10.37,2013-06-26 14:23:00,
2013-06-26 10:28:00,85.3,51.2,30.03,North,0,0.0,0.0,31,0.00,CLR,FEW,0.00,WeatherDisplay:10.37,2013-06-26 14:28:00,
2013-06-26 10:33:00,85.5,52.2,30.03,North,0,0.0,0.0,32,0.00,CLR,FEW,0.00,WeatherDisplay:10.37,2013-06-26 14:33:00,
2013-06-26 10:38:00,86.0,51.8,30.03,North,0,0.0,0.0,31,0.00,CLR,FEW,0.00,WeatherDisplay:10.37,2013-06-26 14:38:00,
2013-06-26 10:43:00,86.4,52.2,30.03,North,0,0.0,0.0,31,0.00,CLR,FEW,0.00,WeatherDisplay:10.37,2013-06-26 14:43:00,
2013-06-26 10:48:00,86.7,51.6,30.03,North,0,0.0,0.0,30,0.00,CLR,FEW,0.00,WeatherDisplay:10.37,2013-06-26 14:48:00,
2013-06-26 10:53:00,87.1,51.9,30.03,North,0,0.0,0.0,30,0.00,CLR,FEW,0.00,WeatherDisplay:10.37,2013-06-26 14:53:00,
2013-06-26 10:58:00,87.1,51.9,30.03,North,0,0.0,0.0,30,0.00,CLR,FEW,0.00,WeatherDisplay:10.37,2013-06-26 14:58:00,
2013-06-26 11:03:00,87.3,51.1,30.03,North,0,0.0,0.0,29,0.00,CLR,FEW,0.00,WeatherDisplay:10.37,2013-06-26 15:03:00,
2013-06-26 11:08:00,87.8,50.6,30.03,North,0,0.0,0.0,28,0.00,CLR,FEW,0.00,WeatherDisplay:10.37,2013-06-26 15:08:00,
2013-06-26 11:14:00,88.0,51.7,30.03,North,0,0.0,0.0,29,0.00,CLR,FEW,0.00,WeatherDisplay:10.37,2013-06-26 15:14:00,
2013-06-26 11:19:00,88.0,50.8,30.03,North,0,0.0,0.0,28,0.00,CLR,FEW,0.00,WeatherDisplay:10.37,2013-06-26 15:19:00,
2013-06-26 11:24:00,88.0,50.8,30.03,North,0,0.0,0.0,28,0.00,CLR,FEW,0.00,WeatherDisplay:10.37,2013-06-26 15:24:00,
2013-06-26 11:29:00,88.2,50.9,30.03,North,0,0.0,0.0,28,0.00,CLR,FEW,0.00,WeatherDisplay:10.37,2013-06-26 15:29:00,
2013-06-26 11:34:00,88.3,51.1,30.03,North,0,0.0,0.0,28,0.00,CLR,FEW,0.00,WeatherDisplay:10.37,2013-06-26 15:34:00,
2013-06-26 11:37:00,88.5,51.3,30.03,North,0,0.0,0.0,28,0.00,CLR,FEW,0.00,WeatherDisplay:10.37,2013-06-26 15:37:00,
2013-06-26 11:42:00,89.1,51.7,30.03,North,0,0.0,0.0,28,0.00,CLR,FEW,0.00,WeatherDisplay:10.37,2013-06-26 15:42:00,
2013-06-26 11:47:00,89.1,51.7,30.03,North,0,0.0,0.0,28,0.00,CLR,FEW,0.00,WeatherDisplay:10.37,2013-06-26 15:47:00,
2013-06-26 11:53:00,88.9,51.6,30.03,North,0,0.0,0.0,28,0.00,CLR,FEW,0.00,WeatherDisplay:10.37,2013-06-26 15:53:00,
2013-06-26 11:58:00,88.5,51.3,30.03,North,0,0.0,0.0,28,0.00,CLR,FEW,0.00,WeatherDisplay:10.37,2013-06-26 15:58:00,
2013-06-26 12:03:00,88.5,51.3,30.03,North,0,0.0,0.0,28,0.00,CLR,FEW,0.00,WeatherDisplay:10.37,2013-06-26 16:03:00,
2013-06-26 12:08:00,88.9,51.6,30.03,North,0,0.0,0.0,28,0.00,CLR,FEW,0.00,WeatherDisplay:10.37,2013-06-26 16:08:00,
2013-06-26 12:13:00,89.2,51.9,30.03,North,0,0.0,0.0,28,0.00,CLR,FEW,0.00,WeatherDisplay:10.37,2013-06-26 16:13:00,
2013-06-26 12:18:00,88.5,51.3,30.03,North,0,0.0,0.0,28,0.00,CLR,FEW,0.00,WeatherDisplay:10.37,2013-06-26 16:18:00,
2013-06-26 12:23:00,88.5,51.3,30.03,North,0,0.0,0.0,28,0.00,CLR,FEW,0.00,WeatherDisplay:10.37,2013-06-26 16:23:00,
2013-06-26 12:28:00,89.1,51.7,30.03,North,0,0.0,0.0,28,0.00,CLR,FEW,0.00,WeatherDisplay:10.37,2013-06-26 16:28:00,
2013-06-26 12:33:00,88.9,51.6,30.03,North,0,0.0,0.0,28,0.00,CLR,FEW,0.00,WeatherDisplay:10.37,2013-06-26 16:33:00,
2013-06-26 12:38:00,89.1,51.7,30.03,North,0,0.0,0.0,28,0.00,CLR,FEW,0.00,WeatherDisplay:10.37,2013-06-26 16:38:00,
2013-06-26 12:43:00,89.1,51.7,30.03,North,0,0.0,0.0,28,0.00,CLR,FEW,0.00,WeatherDisplay:10.37,2013-06-26 16:43:00,
2013-06-26 12:48:00,89.1,51.7,30.03,North,0,0.0,0.0,28,0.00,CLR,FEW,0.00,WeatherDisplay:10.37,2013-06-26 16:48:00,
2013-06-26 12:53:00,89.2,51.9,30.03,North,0,0.0,0.0,28,0.00,CLR,FEW,0.00,WeatherDisplay:10.37,2013-06-26 16:53:00,
2013-06-26 12:58:00,89.6,52.2,30.03,North,0,0.0,0.0,28,0.00,CLR,FEW,0.00,WeatherDisplay:10.37,2013-06-26 16:58:00,
2013-06-26 13:03:00,89.4,52.0,30.03,North,0,0.0,0.0,28,0.00,CLR,FEW,0.00,WeatherDisplay:10.37,2013-06-26 17:03:00,
2013-06-26 13:08:00,88.9,51.6,30.03,North,0,0.0,0.0,28,0.00,CLR,FEW,0.00,WeatherDisplay:10.37,2013-06-26 17:08:00,
2013-06-26 13:13:00,89.1,51.7,30.03,North,0,0.0,0.0,28,0.00,CLR,FEW,0.00,WeatherDisplay:10.37,2013-06-26 17:13:00,
2013-06-26 13:18:00,89.6,51.2,30.00,North,0,0.0,0.0,27,0.00,CLR,FEW,0.00,WeatherDisplay:10.37,2013-06-26 17:18:00,
2013-06-26 13:23:00,89.6,51.2,30.00,North,0,0.0,0.0,27,0.00,CLR,FEW,0.00,WeatherDisplay:10.37,2013-06-26 17:23:00,
2013-06-26 13:28:00,89.2,51.9,30.00,North,0,0.0,0.0,28,0.00,CLR,FEW,0.00,WeatherDisplay:10.37,2013-06-26 17:28:00,
2013-06-26 13:33:00,88.7,51.4,30.00,North,0,0.0,0.0,28,0.00,CLR,FEW,0.00,WeatherDisplay:10.37,2013-06-26 17:33:00,
2013-06-26 13:39:00,89.6,51.2,30.00,North,0,0.0,0.0,27,0.00,CLR,FEW,0.00,WeatherDisplay:10.37,2013-06-26 17:39:00,
2013-06-26 13:44:00,90.3,51.8,30.00,North,0,0.0,0.0,27,0.00,CLR,FEW,0.00,WeatherDisplay:10.37,2013-06-26 17:44:00,
2013-06-26 13:49:00,90.5,52.0,30.00,North,0,0.0,0.0,27,0.00,CLR,FEW,0.00,WeatherDisplay:10.37,2013-06-26 17:49:00,
2013-06-26 13:54:00,90.1,52.6,30.00,North,0,0.0,0.0,28,0.00,CLR,FEW,0.00,WeatherDisplay:10.37,2013-06-26 17:54:00,
2013-06-26 13:59:00,89.8,51.3,30.00,North,0,0.0,0.0,27,0.00,CLR,FEW,0.00,WeatherDisplay:10.37,2013-06-26 17:59:00,
2013-06-26 14:04:00,90.1,52.6,30.00,North,0,0.0,0.0,28,0.00,CLR,FEW,0.00,WeatherDisplay:10.37,2013-06-26 18:04:00,
2013-06-26 14:09:00,91.0,53.4,30.00,North,0,0.0,0.0,28,0.00,CLR,FEW,0.00,WeatherDisplay:10.37,2013-06-26 18:09:00,
2013-06-26 14:15:00,91.2,55.5,30.00,North,0,0.0,0.0,30,0.00,CLR,FEW,0.00,WeatherDisplay:10.37,2013-06-26 18:15:00,
2013-06-26 14:20:00,88.9,56.1,30.00,North,0,0.0,0.0,33,0.00,CLR,FEW,0.00,WeatherDisplay:10.37,2013-06-26 18:20:00,
2013-06-26 14:25:00,87.3,59.3,30.00,North,0,0.0,0.0,39,0.00,CLR,FEW,0.00,WeatherDisplay:10.37,2013-06-26 18:25:00,
2013-06-26 14:30:00,87.1,59.8,30.00,North,0,0.0,0.0,40,0.00,CLR,FEW,0.00,WeatherDisplay:10.37,2013-06-26 18:30:00,
2013-06-26 14:35:00,86.2,59.7,30.00,North,0,0.0,0.0,41,0.00,CLR,FEW,0.00,WeatherDisplay:10.37,2013-06-26 18:35:00,
2013-06-26 14:40:00,85.5,59.1,30.00,North,0,0.0,0.0,41,0.00,CLR,FEW,0.00,WeatherDisplay:10.37,2013-06-26 18:40:00,
2013-06-26 14:45:00,86.0,62.2,30.00,North,0,0.0,0.0,45,0.00,CLR,FEW,0.00,WeatherDisplay:10.37,2013-06-26 18:45:00,
2013-06-26 14:50:00,86.5,60.7,29.97,North,0,0.0,0.0,42,0.00,CLR,FEW,0.00,WeatherDisplay:10.37,2013-06-26 18:50:00,
2013-06-26 14:55:00,85.8,59.4,29.97,North,0,0.0,0.0,41,0.00,CLR,FEW,0.00,WeatherDisplay:10.37,2013-06-26 18:55:00,
2013-06-26 15:00:00,85.1,60.1,29.97,North,0,0.0,0.0,43,0.00,CLR,FEW,0.00,WeatherDisplay:10.37,2013-06-26 19:00:00,
2013-06-26 15:05:00,84.4,60.1,29.97,North,0,0.0,0.0,44,0.00,CLR,FEW,0.00,WeatherDisplay:10.37,2013-06-26 19:05:00,
2013-06-26 15:10:00,83.8,60.8,29.97,North,0,0.0,0.0,46,0.00,CLR,FEW,0.00,WeatherDisplay:10.37,2013-06-26 19:10:00,
2013-06-26 15:15:00,83.8,62.1,29.97,North,0,0.0,0.0,48,0.00,CLR,FEW,0.00,WeatherDisplay:10.37,2013-06-26 19:15:00,
2013-06-26 15:20:00,83.7,61.9,29.97,North,0,0.0,0.0,48,0.00,CLR,FEW,0.00,WeatherDisplay:10.37,2013-06-26 19:20:00,
2013-06-26 15:25:00,83.5,62.9,29.97,North,0,0.0,0.0,50,0.00,CLR,FEW,0.00,WeatherDisplay:10.37,2013-06-26 19:25:00,
2013-06-26 15:30:00,83.3,62.7,29.97,North,0,0.0,0.0,50,0.00,CLR,FEW,0.00,WeatherDisplay:10.37,2013-06-26 19:30:00,
2013-06-26 15:35:00,82.9,63.0,29.97,North,0,0.0,0.0,51,0.00,CLR,FEW,0.00,WeatherDisplay:10.37,2013-06-26 19:35:00,
2013-06-26 15:40:00,83.3,65.4,29.97,North,0,0.0,0.0,55,0.00,CLR,FEW,0.00,WeatherDisplay:10.37,2013-06-26 19:40:00,
2013-06-26 15:45:00,84.4,63.1,29.97,North,0,0.0,0.0,49,0.00,CLR,FEW,0.00,WeatherDisplay:10.37,2013-06-26 19:45:00,
2013-06-26 15:50:00,84.9,61.2,29.97,North,0,0.0,0.0,45,0.00,CLR,FEW,0.00,WeatherDisplay:10.37,2013-06-26 19:50:00,
2013-06-26 15:55:00,84.2,62.4,29.97,North,0,0.0,0.0,48,0.00,CLR,FEW,0.00,WeatherDisplay:10.37,2013-06-26 19:55:00,
2013-06-26 16:00:00,83.3,63.3,29.97,North,0,0.0,0.0,51,0.00,CLR,FEW,0.00,WeatherDisplay:10.37,2013-06-26 20:00:00,
2013-06-26 16:05:00,82.6,62.6,29.97,North,0,0.0,0.0,51,0.00,CLR,FEW,0.00,WeatherDisplay:10.37,2013-06-26 20:05:00,
2013-06-26 16:10:00,81.9,58.4,29.97,North,0,0.0,0.0,45,0.00,CLR,FEW,0.00,WeatherDisplay:10.37,2013-06-26 20:10:00,
2013-06-26 16:16:00,81.9,57.8,29.97,North,0,0.0,0.0,44,0.00,CLR,FEW,0.00,WeatherDisplay:10.37,2013-06-26 20:16:00,
2013-06-26 16:21:00,82.0,58.0,29.97,North,0,0.0,0.0,44,0.00,CLR,FEW,0.00,WeatherDisplay:10.37,2013-06-26 20:21:00,
2013-06-26 16:27:00,81.5,62.2,29.97,North,0,0.0,0.0,52,0.00,CLR,FEW,0.00,WeatherDisplay:10.37,2013-06-26 20:27:00,
2013-06-26 16:32:00,81.1,62.4,30.00,North,0,0.0,0.0,53,0.00,CLR,FEW,0.00,WeatherDisplay:10.37,2013-06-26 20:32:00,
2013-06-26 16:37:00,80.4,58.3,30.00,North,0,0.0,0.0,47,0.00,CLR,FEW,0.00,WeatherDisplay:10.37,2013-06-26 20:37:00,
2013-06-26 16:42:00,80.4,55.9,30.00,North,0,0.0,0.0,43,0.00,CLR,FEW,0.00,WeatherDisplay:10.37,2013-06-26 20:42:00,
2013-06-26 16:47:00,80.6,55.4,29.97,North,0,0.0,0.0,42,0.00,CLR,FEW,0.00,WeatherDisplay:10.37,2013-06-26 20:47:00,
2013-06-26 16:52:00,80.6,55.4,29.97,North,0,0.0,0.0,42,0.00,CLR,FEW,0.00,WeatherDisplay:10.37,2013-06-26 20:52:00,
2013-06-26 16:57:00,80.8,56.8,29.97,North,0,0.0,0.0,44,0.00,CLR,FEW,0.00,WeatherDisplay:10.37,2013-06-26 20:57:00,
2013-06-26 17:02:00,80.6,59.1,29.97,North,0,0.0,0.0,48,0.00,CLR,FEW,0.00,WeatherDisplay:10.37,2013-06-26 21:02:00,
2013-06-26 17:07:00,80.8,60.4,29.97,North,0,0.0,0.0,50,0.00,CLR,FEW,0.00,WeatherDisplay:10.37,2013-06-26 21:07:00,
2013-06-26 17:12:00,80.8,61.5,29.97,North,0,0.0,0.0,52,0.00,CLR,FEW,0.00,WeatherDisplay:10.37,2013-06-26 21:12:00,
2013-06-26 17:17:00,80.8,62.6,29.94,North,0,0.0,0.0,54,0.00,CLR,FEW,0.00,WeatherDisplay:10.37,2013-06-26 21:17:00,
2013-06-26 17:22:00,80.8,63.1,29.94,North,0,0.0,0.0,55,0.00,CLR,FEW,0.00,WeatherDisplay:10.37,2013-06-26 21:22:00,
2013-06-26 17:27:00,80.6,64.0,29.94,North,0,0.0,0.0,57,0.00,CLR,FEW,0.00,WeatherDisplay:10.37,2013-06-26 21:27:00,
2013-06-26 17:32:00,80.8,64.6,29.97,North,0,0.0,0.0,58,0.00,CLR,FEW,0.00,WeatherDisplay:10.37,2013-06-26 21:32:00,
2013-06-26 17:37:00,80.8,65.1,29.97,North,0,0.0,0.0,59,0.00,CLR,FEW,0.00,WeatherDisplay:10.37,2013-06-26 21:37:00,
2013-06-26 17:42:00,80.6,65.9,29.97,North,0,0.0,0.0,61,0.00,CLR,FEW,0.00,WeatherDisplay:10.37,2013-06-26 21:42:00,
2013-06-26 17:47:00,80.6,66.8,29.94,North,0,0.0,0.0,63,0.00,CLR,FEW,0.00,WeatherDisplay:10.37,2013-06-26 21:47:00,
2013-06-26 17:52:00,80.8,67.9,29.94,North,0,0.0,0.0,65,0.00,CLR,FEW,0.00,WeatherDisplay:10.37,2013-06-26 21:52:00,
2013-06-26 17:57:00,81.0,68.1,29.94,North,0,0.0,0.0,65,0.00,CLR,FEW,0.00,WeatherDisplay:10.37,2013-06-26 21:57:00,
2013-06-26 18:02:00,81.1,68.3,29.94,North,0,0.0,0.0,65,0.00,CLR,FEW,0.00,WeatherDisplay:10.37,2013-06-26 22:02:00,
2013-06-26 18:07:00,81.1,67.3,29.94,North,0,0.0,0.0,63,0.00,CLR,FEW,0.00,WeatherDisplay:10.37,2013-06-26 22:07:00,
2013-06-26 18:12:00,81.1,66.9,29.94,North,0,0.0,0.0,62,0.00,CLR,FEW,0.00,WeatherDisplay:10.37,2013-06-26 22:12:00,
2013-06-26 18:17:00,81.3,67.5,29.97,North,0,0.0,0.0,63,0.00,CLR,FEW,0.00,WeatherDisplay:10.37,2013-06-26 22:17:00,
2013-06-26 18:22:00,81.3,67.1,29.97,North,0,0.0,0.0,62,0.00,CLR,FEW,0.00,WeatherDisplay:10.37,2013-06-26 22:22:00,
2013-06-26 18:27:00,81.3,67.5,29.97,North,0,0.0,0.0,63,0.00,CLR,FEW,0.00,WeatherDisplay:10.37,2013-06-26 22:27:00,
2013-06-26 18:32:00,81.3,68.0,29.97,North,0,0.0,0.0,64,0.00,CLR,FEW,0.00,WeatherDisplay:10.37,2013-06-26 22:32:00,
2013-06-26 18:37:00,81.3,67.1,29.97,North,0,0.0,0.0,62,0.00,CLR,FEW,0.00,WeatherDisplay:10.37,2013-06-26 22:37:00,
2013-06-26 18:42:00,81.1,65.0,29.97,North,0,0.0,0.0,58,0.00,CLR,FEW,0.00,WeatherDisplay:10.37,2013-06-26 22:42:00,
2013-06-26 18:47:00,81.3,64.1,29.97,North,0,0.0,0.0,56,0.00,CLR,FEW,0.00,WeatherDisplay:10.37,2013-06-26 22:47:00,
2013-06-26 18:52:00,81.5,63.8,29.97,North,0,0.0,0.0,55,0.00,CLR,FEW,0.00,WeatherDisplay:10.37,2013-06-26 22:52:00,
2013-06-26 18:57:00,81.7,63.4,29.97,North,0,0.0,0.0,54,0.00,CLR,FEW,0.00,WeatherDisplay:10.37,2013-06-26 22:57:00,
2013-06-26 19:02:00,81.5,63.3,29.94,North,0,0.0,0.0,54,0.00,CLR,FEW,0.00,WeatherDisplay:10.37,2013-06-26 23:02:00,
2013-06-26 19:07:00,81.5,62.2,29.94,North,0,0.0,0.0,52,0.00,CLR,FEW,0.00,WeatherDisplay:10.37,2013-06-26 23:07:00,
2013-06-26 19:12:00,81.5,62.2,29.94,North,0,0.0,0.0,52,0.00,CLR,FEW,0.00,WeatherDisplay:10.37,2013-06-26 23:12:00,
2013-06-26 19:17:00,81.7,60.1,29.94,North,0,0.0,0.0,48,0.00,CLR,FEW,0.00,WeatherDisplay:10.37,2013-06-26 23:17:00,
2013-06-26 19:22:00,81.9,59.1,29.94,North,0,0.0,0.0,46,0.00,CLR,FEW,0.00,WeatherDisplay:10.37,2013-06-26 23:22:00,
2013-06-26 19:28:00,82.0,59.2,29.94,North,0,0.0,0.0,46,0.00,CLR,FEW,0.00,WeatherDisplay:10.37,2013-06-26 23:28:00,
2013-06-26 19:33:00,82.2,59.4,29.94,North,0,0.0,0.0,46,0.00,CLR,FEW,0.00,WeatherDisplay:10.37,2013-06-26 23:33:00,
2013-06-26 19:38:00,82.4,60.1,29.94,North,0,0.0,0.0,47,0.00,CLR,FEW,0.00,WeatherDisplay:10.37,2013-06-26 23:38:00,
2013-06-26 19:43:00,82.2,61.2,29.94,North,0,0.0,0.0,49,0.00,CLR,FEW,0.00,WeatherDisplay:10.37,2013-06-26 23:43:00,
2013-06-26 19:48:00,82.0,62.1,29.94,North,0,0.0,0.0,51,0.00,CLR,FEW,0.00,WeatherDisplay:10.37,2013-06-26 23:48:00,
2013-06-26 19:54:00,81.9,61.4,29.94,North,0,0.0,0.0,50,0.00,CLR,FEW,0.00,WeatherDisplay:10.37,2013-06-26 23:54:00,
2013-06-26 20:00:00,81.9,60.2,29.94,North,0,0.0,0.0,48,0.00,CLR,FEW,0.00,WeatherDisplay:10.37,2013-06-27 00:00:00,
2013-06-26 20:05:00,81.7,60.7,29.97,North,0,0.0,0.0,49,0.00,CLR,FEW,0.00,WeatherDisplay:10.37,2013-06-27 00:05:00,
2013-06-26 20:10:00,81.5,61.1,29.97,North,0,0.0,0.0,50,0.00,CLR,FEW,0.00,WeatherDisplay:10.37,2013-06-27 00:10:00,
2013-06-26 20:15:00,81.3,61.5,29.97,North,0,0.0,0.0,51,0.00,CLR,FEW,0.00,WeatherDisplay:10.37,2013-06-27 00:15:00,
2013-06-26 20:20:00,81.1,62.4,29.97,North,0,0.0,0.0,53,0.00,CLR,FEW,0.00,WeatherDisplay:10.37,2013-06-27 00:20:00,
2013-06-26 20:25:00,81.1,62.4,29.97,North,0,0.0,0.0,53,0.00,CLR,FEW,0.00,WeatherDisplay:10.37,2013-06-27 00:25:00,
2013-06-26 20:30:00,81.0,62.7,29.97,North,0,0.0,0.0,54,0.00,CLR,FEW,0.00,WeatherDisplay:10.37,2013-06-27 00:30:00,
2013-06-26 20:35:00,80.8,63.6,29.97,North,0,0.0,0.0,56,0.00,CLR,FEW,0.00,WeatherDisplay:10.37,2013-06-27 00:35:00,
2013-06-26 20:41:00,80.8,64.1,29.97,North,0,0.0,0.0,57,0.00,CLR,FEW,0.00,WeatherDisplay:10.37,2013-06-27 00:41:00,
2013-06-26 20:46:00,80.8,63.6,29.97,North,0,0.0,0.0,56,0.00,CLR,FEW,0.00,WeatherDisplay:10.37,2013-06-27 00:46:00,
2013-06-26 20:51:00,80.6,63.5,29.97,North,0,0.0,0.0,56,0.00,CLR,FEW,0.00,WeatherDisplay:10.37,2013-06-27 00:51:00,
2013-06-26 20:56:00,80.4,62.8,29.97,North,0,0.0,0.0,55,0.00,CLR,FEW,0.00,WeatherDisplay:10.37,2013-06-27 00:56:00,
2013-06-26 21:01:00,80.2,62.6,29.97,North,0,0.0,0.0,55,0.00,CLR,FEW,0.00,WeatherDisplay:10.37,2013-06-27 01:01:00,
2013-06-26 21:06:00,80.2,62.1,29.97,North,0,0.0,0.0,54,0.00,CLR,FEW,0.00,WeatherDisplay:10.37,2013-06-27 01:06:00,
2013-06-26 21:11:00,80.2,61.6,29.97,North,0,0.0,0.0,53,0.00,CLR,FEW,0.00,WeatherDisplay:10.37,2013-06-27 01:11:00,
2013-06-26 21:16:00,79.9,61.7,29.97,North,0,0.0,0.0,54,0.00,CLR,FEW,0.00,WeatherDisplay:10.37,2013-06-27 01:16:00,
2013-06-26 21:21:00,79.7,61.6,29.97,North,0,0.0,0.0,54,0.00,CLR,FEW,0.00,WeatherDisplay:10.37,2013-06-27 01:21:00,
2013-06-26 21:26:00,79.5,60.9,29.97,North,0,0.0,0.0,53,0.00,CLR,FEW,0.00,WeatherDisplay:10.37,2013-06-27 01:26:00,
2013-06-26 21:31:00,79.5,60.4,29.97,North,0,0.0,0.0,52,0.00,CLR,FEW,0.00,WeatherDisplay:10.37,2013-06-27 01:31:00,
2013-06-26 21:36:00,79.3,60.2,29.97,North,0,0.0,0.0,52,0.00,CLR,FEW,0.00,WeatherDisplay:10.37,2013-06-27 01:36:00,
2013-06-26 21:41:00,79.0,59.9,29.97,North,0,0.0,0.0,52,0.00,CLR,FEW,0.00,WeatherDisplay:10.37,2013-06-27 01:41:00,
2013-06-26 21:46:00,79.0,59.9,29.97,North,0,0.0,0.0,52,0.00,CLR,FEW,0.00,WeatherDisplay:10.37,2013-06-27 01:46:00,
2013-06-26 21:51:00,79.0,59.3,29.97,North,0,0.0,0.0,51,0.00,CLR,FEW,0.00,WeatherDisplay:10.37,2013-06-27 01:51:00,
2013-06-26 21:56:00,78.8,59.7,29.97,North,0,0.0,0.0,52,0.00,CLR,FEW,0.00,WeatherDisplay:10.37,2013-06-27 01:56:00,
2013-06-26 22:01:00,78.6,60.1,29.97,North,0,0.0,0.0,53,0.00,CLR,FEW,0.00,WeatherDisplay:10.37,2013-06-27 02:01:00,
2013-06-26 22:06:00,78.6,60.6,29.97,North,0,0.0,0.0,54,0.00,CLR,FEW,0.00,WeatherDisplay:10.37,2013-06-27 02:06:00,
2013-06-26 22:11:00,78.6,60.1,29.97,North,0,0.0,0.0,53,0.00,CLR,FEW,0.00,WeatherDisplay:10.37,2013-06-27 02:11:00,
2013-06-26 22:16:00,78.6,60.1,30.00,North,0,0.0,0.0,53,0.00,CLR,FEW,0.00,WeatherDisplay:10.37,2013-06-27 02:16:00,
2013-06-26 22:21:00,78.4,60.4,30.00,North,0,0.0,0.0,54,0.00,CLR,FEW,0.00,WeatherDisplay:10.37,2013-06-27 02:21:00,
2013-06-26 22:26:00,78.3,60.8,30.00,North,0,0.0,0.0,55,0.00,CLR,FEW,0.00,WeatherDisplay:10.37,2013-06-27 02:26:00,
2013-06-26 22:31:00,78.3,60.8,30.00,North,0,0.0,0.0,55,0.00,CLR,FEW,0.00,WeatherDisplay:10.37,2013-06-27 02:31:00,
2013-06-26 22:36:00,78.1,60.6,30.00,North,0,0.0,0.0,55,0.00,CLR,FEW,0.00,WeatherDisplay:10.37,2013-06-27 02:36:00,
2013-06-26 22:42:00,77.7,61.3,30.00,North,0,0.0,0.0,57,0.00,CLR,FEW,0.00,WeatherDisplay:10.37,2013-06-27 02:42:00,
2013-06-26 22:47:00,77.7,61.8,30.00,North,0,0.0,0.0,58,0.00,CLR,FEW,0.00,WeatherDisplay:10.37,2013-06-27 02:47:00,
2013-06-26 22:52:00,77.5,61.6,30.00,North,0,0.0,0.0,58,0.00,CLR,FEW,0.00,WeatherDisplay:10.37,2013-06-27 02:52:00,
2013-06-26 22:57:00,77.4,61.9,30.00,North,0,0.0,0.0,59,0.00,CLR,FEW,0.00,WeatherDisplay:10.37,2013-06-27 02:57:00,
2013-06-26 23:02:00,77.4,63.3,30.00,North,0,0.0,0.0,62,0.00,CLR,FEW,0.00,WeatherDisplay:10.37,2013-06-27 03:02:00,
2013-06-26 23:07:00,77.4,63.3,30.00,North,0,0.0,0.0,62,0.00,CLR,FEW,0.00,WeatherDisplay:10.37,2013-06-27 03:07:00,
2013-06-26 23:12:00,77.2,63.2,30.00,North,0,0.0,0.0,62,0.00,CLR,FEW,0.00,WeatherDisplay:10.37,2013-06-27 03:12:00,
2013-06-26 23:17:00,77.2,63.2,30.00,North,0,0.0,0.0,62,0.00,CLR,FEW,0.00,WeatherDisplay:10.37,2013-06-27 03:17:00,
2013-06-26 23:22:00,77.0,63.4,30.00,North,0,0.0,0.0,63,0.00,CLR,FEW,0.00,WeatherDisplay:10.37,2013-06-27 03:22:00,
2013-06-26 23:28:00,77.0,64.3,30.00,North,0,0.0,0.0,65,0.00,CLR,FEW,0.00,WeatherDisplay:10.37,2013-06-27 03:28:00,
2013-06-26 23:33:00,77.0,64.8,30.00,North,0,0.0,0.0,66,0.00,CLR,FEW,0.00,WeatherDisplay:10.37,2013-06-27 03:33:00,
2013-06-26 23:38:00,77.0,64.8,30.00,North,0,0.0,0.0,66,0.00,CLR,FEW,0.00,WeatherDisplay:10.37,2013-06-27 03:38:00,
2013-06-26 23:43:00,77.0,65.2,30.00,North,0,0.0,0.0,67,0.00,CLR,FEW,0.00,WeatherDisplay:10.37,2013-06-27 03:43:00,
2013-06-26 23:48:00,77.0,65.6,30.00,North,0,0.0,0.0,68,0.00,CLR,FEW,0.00,WeatherDisplay:10.37,2013-06-27 03:48:00,
2013-06-26 23:53:00,77.2,65.4,30.00,North,0,0.0,0.0,67,0.00,CLR,FEW,0.00,WeatherDisplay:10.37,2013-06-27 03:53:00,
2013-06-26 23:58:00,77.0,64.8,30.00,North,0,0.0,0.0,66,0.00,CLR,FEW,0.00,WeatherDisplay:10.37,2013-06-27 03:58:00,